Home > Time Zones > World Clock > Weather > Yemen > Aden > Past weeks

Flag for Yemen Weather past 2 weeks in Aden, Yemen

Now
79 °F

Passing clouds.


Feels Like: 81 °F
Forecast: 74 / 83 °F
Wind: 14 mph from Southeast

Location: Aden

Current Time: Mar 4, 2015 at 12:03:48 AM

Latest Report: Mar 3, 2015 at 11:00 PM


Visibility: 4 mi

Pressure: 29.98 "Hg

Humidity: 65%

Dew point: 66 °F

Location of AdenLocation

Historic Weather in Aden — Graph

°F

Aden temperature yesterday

Maximum temperature yesterday: 82 °F (at 3:00 PM)
Minimum temperature yesterday: 77 °F (at 12:00 AM)
Average temperature yesterday: 79 °F

Past Weeks' High & Low Weather Summary

 TemperatureHumidityPressure
High84 °F (Feb 18, 2:00 PM)78% (Feb 17, 6:00 AM)30.04 "Hg (Feb 17, 6:00 AM)
Low72 °F (Feb 17, 5:00 AM)54% (Feb 19, 11:00 AM)27.18 "Hg (Feb 18, 12:00 PM)
Average79 °F66%29.91 "Hg
* Reported Feb 16 10:00 PM — Mar 3 10:00 PM, Aden, Weather by CustomWeather, © 2015

Note: Actual official high and low records may vary slightly from our data, if they occured in-between our weather recording intervals... More about our weather records

Advertising

Aden weather history for previous 24 hours

 ConditionsComfort  
Time TempWeatherWind HumidityBarometerVisibility
10:00 PM
Tue, Mar 3
79 °FPassing clouds.12 mph65%29.98 "Hg4 mi
9:00 PM79 °FPassing clouds.10 mph65%29.98 "Hg4 mi
8:00 PM79 °FPassing clouds.9 mph65%29.95 "Hg4 mi
7:00 PM79 °FPassing clouds.10 mph65%29.92 "Hg4 mi
6:00 PM81 °FPassing clouds.12 mph58%29.92 "Hg4 mi
5:00 PM81 °FPassing clouds.13 mph58%29.92 "Hg4 mi
4:00 PM81 °FPassing clouds.13 mph62%29.92 "Hg4 mi
3:00 PM82 °FScattered clouds.13 mph58%29.92 "Hg4 mi
2:00 PM81 °FPartly sunny.14 mph58%29.95 "Hg4 mi
1:00 PM81 °FPartly sunny.13 mph62%29.98 "Hg4 mi
12:00 PM81 °FPartly sunny.14 mph62%30.01 "Hg4 mi
11:00 AM81 °FPartly sunny.12 mph62%30.01 "Hg4 mi
10:00 AM81 °FPartly sunny.12 mph62%30.04 "Hg5 mi
9:00 AM81 °FScattered clouds.13 mph62%30.01 "Hg5 mi
8:00 AM79 °FScattered clouds.9 mph65%30.01 "Hg4 mi
7:00 AM77 °FScattered clouds.12 mph69%29.98 "Hg4 mi
6:00 AM77 °FPassing clouds.12 mph69%29.95 "Hg4 mi
5:00 AM77 °FPassing clouds.12 mph69%29.92 "Hg4 mi
4:00 AM77 °FPassing clouds.12 mph69%29.92 "Hg4 mi
3:00 AM77 °FPassing clouds.9 mph69%29.92 "Hg4 mi
2:00 AM77 °FPassing clouds.14 mph69%29.95 "Hg4 mi
1:00 AM77 °FPassing clouds.14 mph69%29.95 "Hg4 mi
12:00 AM77 °FPassing clouds.14 mph69%29.98 "Hg4 mi
Weather by CustomWeather, © 2015

See weather overviewHow to use our weather pages